User: anonymous   Login
Location: Gairloch Mountain Observatory
(46.1383°N, 60.9640°W)
Time: 21:20:52
(UTC-04:00)
Language:

CENTAUR R/B - Orbit

View from above orbital plane
View from above orbital plane
View from above satellite
View from above satellite

Ground track
Ground track

The orbit data is extracted from the following two-line orbital elements,

1 26906U 01040B   15017.23038662 0.00000060  00000-0  82142-4 0    02
2 26906  63.4635  72.7096 0278000 344.5741  15.4259 13.43938260    03
Epoch (UTC): 17 January 2015 05:31:45
Eccentricity: 0.0278000
inclination: 63.4635°
perigee height: 887 km
apogee height: 1302 km
right ascension of ascending node: 72.7096°
argument of perigee: 344.5741°
revolutions per day: 13.43938260
mean anomaly at epoch: 15.4259°
orbit number at epoch: 0

The dashed part of the orbit path shows where the satellite is in the earth's shadow,  

DLR